TimeCST,TemperatureF,Dew PointF,Humidity,Sea Level PressureIn,VisibilityMPH,Wind Direction,Wind SpeedMPH,Gust SpeedMPH,PrecipitationIn,Events,Conditions,WindDirDegrees,DateUTC
12:13 AM,41.0,37.4,87,30.10,2.0,NNE,4.6,-,0.01,Rain,Light Rain,20,2012-11-05 06:13:00
12:34 AM,41.0,37.4,87,30.10,2.0,North,4.6,-,0.02,Rain,Light Rain,0,2012-11-05 06:34:00
12:53 AM,41.0,37.4,87,30.10,2.5,North,3.5,-,0.03,Rain,Light Rain,0,2012-11-05 06:53:00
1:13 AM,41.0,37.4,87,30.10,2.5,North,4.6,-,N/A,,Drizzle,0,2012-11-05 07:13:00
1:34 AM,41.0,37.4,87,30.10,2.5,North,5.8,-,0.01,Rain,Rain,0,2012-11-05 07:34:00
1:53 AM,41.0,37.4,87,30.10,2.0,North,5.8,-,0.01,Rain,Rain,0,2012-11-05 07:53:00
2:13 AM,41.0,37.4,87,30.10,2.5,North,6.9,-,0.01,Rain,Light Rain,10,2012-11-05 08:13:00
2:33 AM,39.2,37.4,93,30.10,2.5,North,6.9,-,0.01,Rain,Rain,10,2012-11-05 08:33:00
2:53 AM,39.2,37.4,93,30.10,3.0,North,8.1,-,0.02,Rain,Rain,10,2012-11-05 08:53:00
3:13 AM,39.2,37.4,93,30.11,3.0,North,5.8,-,N/A,,Drizzle,0,2012-11-05 09:13:00
3:33 AM,39.2,37.4,93,30.11,2.5,North,5.8,-,N/A,,Drizzle,0,2012-11-05 09:33:00
3:53 AM,39.2,37.4,93,30.11,2.5,North,5.8,-,0.01,,Drizzle,10,2012-11-05 09:53:00
4:13 AM,39.2,37.4,93,30.11,2.5,North,6.9,-,N/A,,Drizzle,10,2012-11-05 10:13:00
4:33 AM,39.2,37.4,93,30.11,2.5,North,4.6,-,N/A,,Drizzle,350,2012-11-05 10:33:00
4:53 AM,39.2,37.4,93,30.12,2.0,North,4.6,-,0.01,,Drizzle,350,2012-11-05 10:53:00
5:13 AM,39.2,35.6,87,30.12,2.5,North,5.8,-,N/A,,Light Drizzle,0,2012-11-05 11:13:00
5:33 AM,39.2,35.6,87,30.12,3.0,North,3.5,-,N/A,,Light Drizzle,350,2012-11-05 11:33:00
5:53 AM,37.4,35.6,93,30.12,2.5,North,8.1,-,0.01,,Light Drizzle,10,2012-11-05 11:53:00
6:13 AM,37.4,35.6,93,30.12,2.5,North,4.6,-,N/A,,Light Drizzle,350,2012-11-05 12:13:00
6:33 AM,37.4,35.6,93,30.12,3.0,North,5.8,-,N/A,Rain,Light Rain,350,2012-11-05 12:33:00
6:53 AM,37.4,35.6,93,30.13,2.5,North,3.5,-,N/A,,Light Drizzle,350,2012-11-05 12:53:00
7:13 AM,37.4,35.6,93,30.13,2.5,NNW,4.6,-,N/A,,Light Drizzle,340,2012-11-05 13:13:00
7:33 AM,37.4,35.6,93,30.14,1.8,NNW,5.8,-,N/A,,Light Drizzle,340,2012-11-05 13:33:00
7:53 AM,37.4,35.6,93,30.14,1.0,NNW,5.8,-,N/A,Rain,Light Rain,340,2012-11-05 13:53:00
8:13 AM,37.4,35.6,93,30.15,1.0,North,4.6,-,N/A,,Light Drizzle,0,2012-11-05 14:13:00
8:33 AM,37.4,35.6,93,30.14,1.0,North,3.5,-,N/A,,Overcast,350,2012-11-05 14:33:00
8:54 AM,37.4,35.6,93,30.14,1.0,North,3.5,-,N/A,,Overcast,10,2012-11-05 14:54:00
9:13 AM,37.4,35.6,93,30.14,1.0,NNE,3.5,-,N/A,,Overcast,20,2012-11-05 15:13:00
9:33 AM,37.4,35.6,93,30.15,0.8,Calm,Calm,-,N/A,,Overcast,0,2012-11-05 15:33:00
9:54 AM,37.4,35.6,93,30.15,1.2,North,3.5,-,N/A,,Overcast,0,2012-11-05 15:54:00
10:13 AM,37.4,35.6,93,30.15,1.5,Calm,Calm,-,N/A,,Overcast,0,2012-11-05 16:13:00
10:33 AM,39.2,35.6,87,30.15,1.0,Calm,Calm,-,N/A,,Overcast,0,2012-11-05 16:33:00
10:54 AM,39.2,37.4,93,30.15,1.8,Calm,Calm,-,0.01,,Overcast,0,2012-11-05 16:54:00
11:13 AM,39.2,37.4,93,30.15,3.0,Calm,Calm,-,N/A,,Overcast,0,2012-11-05 17:13:00
11:33 AM,41.0,37.4,87,30.15,1.5,Calm,Calm,-,N/A,,Overcast,0,2012-11-05 17:33:00
11:53 AM,41.0,37.4,87,30.15,1.2,Calm,Calm,-,N/A,,Overcast,0,2012-11-05 17:53:00
12:13 PM,41.0,37.4,87,30.14,1.2,South,4.6,-,N/A,,Overcast,170,2012-11-05 18:13:00
12:33 PM,41.0,37.4,87,30.13,1.8,South,4.6,-,N/A,,Overcast,170,2012-11-05 18:33:00
12:53 PM,41.0,37.4,87,30.12,1.2,South,3.5,-,N/A,,Overcast,190,2012-11-05 18:53:00
1:13 PM,41.0,37.4,87,30.12,0.8,South,5.8,-,N/A,,Overcast,190,2012-11-05 19:13:00
1:33 PM,41.0,37.4,87,30.12,0.8,South,6.9,-,N/A,,Overcast,190,2012-11-05 19:33:00
1:53 PM,41.0,37.4,87,30.12,0.8,West,5.8,-,N/A,,Overcast,280,2012-11-05 19:53:00
2:13 PM,39.2,35.6,87,30.10,1.0,WNW,4.6,-,N/A,,Overcast,290,2012-11-05 20:13:00
2:33 PM,39.2,35.6,87,30.09,1.2,WNW,4.6,-,N/A,,Overcast,290,2012-11-05 20:33:00
2:53 PM,39.2,35.6,87,30.10,1.2,WNW,3.5,-,N/A,,Overcast,290,2012-11-05 20:53:00
3:13 PM,39.2,35.6,87,30.10,1.8,West,3.5,-,N/A,,Overcast,270,2012-11-05 21:13:00
3:53 PM,39.2,35.6,87,30.10,1.2,West,3.5,-,N/A,,Overcast,270,2012-11-05 21:53:00
4:13 PM,39.2,35.6,87,30.09,1.2,SW,3.5,-,N/A,,Overcast,230,2012-11-05 22:13:00
4:33 PM,39.2,35.6,87,30.08,1.2,SW,4.6,-,N/A,,Overcast,230,2012-11-05 22:33:00
4:53 PM,39.2,35.6,87,30.08,1.2,SSW,3.5,-,N/A,,Overcast,210,2012-11-05 22:53:00
5:13 PM,39.2,35.6,87,30.07,2.0,SSW,3.5,-,N/A,,Overcast,210,2012-11-05 23:13:00
5:33 PM,39.2,35.6,87,30.07,2.5,SW,4.6,-,N/A,,Overcast,230,2012-11-05 23:33:00
5:53 PM,37.4,35.6,93,30.07,4.0,SW,5.8,-,N/A,,Overcast,230,2012-11-05 23:53:00
6:14 PM,39.2,35.6,87,30.07,3.0,WSW,5.8,-,N/A,,Overcast,240,2012-11-06 00:14:00
6:33 PM,37.4,35.6,93,30.08,1.8,SW,8.1,-,0.01,,Drizzle,230,2012-11-06 00:33:00
6:53 PM,37.4,35.6,93,30.07,2.5,SW,6.9,-,0.01,Rain,Light Rain,220,2012-11-06 00:53:00
7:13 PM,37.4,35.6,93,30.06,2.5,SW,8.1,-,N/A,,Overcast,220,2012-11-06 01:13:00
7:33 PM,37.4,35.6,93,30.05,2.5,SSW,9.2,-,N/A,,Overcast,210,2012-11-06 01:33:00
7:53 PM,37.4,35.6,93,30.05,5.0,SW,8.1,-,N/A,,Overcast,220,2012-11-06 01:53:00
8:13 PM,37.4,35.6,93,30.05,5.0,SW,9.2,-,N/A,,Overcast,230,2012-11-06 02:13:00
8:33 PM,37.4,35.6,93,30.04,5.0,SW,9.2,-,N/A,,Overcast,220,2012-11-06 02:33:00
8:53 PM,37.4,35.6,93,30.03,5.0,SSW,10.4,-,N/A,,Overcast,210,2012-11-06 02:53:00
9:13 PM,37.4,35.6,93,30.03,5.0,SSW,8.1,-,N/A,,Overcast,210,2012-11-06 03:13:00
9:33 PM,37.4,35.6,93,30.02,5.0,SW,9.2,-,N/A,,Overcast,220,2012-11-06 03:33:00
9:53 PM,37.4,35.6,93,30.00,5.0,SSW,9.2,-,N/A,,Overcast,200,2012-11-06 03:53:00
10:13 PM,37.4,35.6,93,29.99,5.0,SSW,12.7,-,N/A,,Overcast,200,2012-11-06 04:13:00
10:33 PM,37.4,35.6,93,29.98,5.0,SSW,11.5,16.1,N/A,,Overcast,210,2012-11-06 04:33:00
10:53 PM,39.2,35.6,87,29.97,5.0,SW,16.1,-,N/A,,Overcast,220,2012-11-06 04:53:00
11:13 PM,39.2,35.6,87,29.94,5.0,SSW,16.1,19.6,N/A,,Overcast,210,2012-11-06 05:13:00
11:33 PM,39.2,35.6,87,29.95,5.0,SSW,13.8,-,N/A,,Overcast,200,2012-11-06 05:33:00
11:53 PM,39.2,35.6,87,29.94,5.0,SSW,19.6,24.2,N/A,,Overcast,200,2012-11-06 05:53:00